星链-33571 (STARLINK-33571)

导读 | 星芒AI

STARLINK-33571 是 SpaceX 星链计划中的一颗低轨通信卫星,属于第 6 批星链卫星群。该卫星于 2023 年发射,旨在为全球提供高速互联网服务。它运行在约 550 公里的轨道高度,采用先进的推进系统和激光通信技术,以提高网络连接的稳定性和效率。作为星链星座的一部分,STARLINK-33571 有助于扩大卫星互联网的覆盖范围,特别是在偏远和网络基础设施薄弱的地区。

基本信息
目录编号:
63386
目录名称:
STARLINK-33571
国际标识:
2025-063Z
轨道中心:
EARTH
卫星名称:
星链-33571
卫星全名:
星链-33571 (STARLINK-33571)
卫星状态:
在轨 (已飞行226 天)
发射日期:
2025-03-26 UTC
国别 :
美国 (US)
星等 :
--
轨道信息
数据来源 国际轨道数据
星历时间: 2025-11-07T12:06:35+0800
18小时前
查看轨道信息
半长轴: 6853.523km
偏心率: 0.0000832
轨道倾角: 53.161°
近地点辐角 118.721°
升交点赤经 272.005°
平近点角 241.388°
近地点: 474.817km
远地点: 475.959km
周期: 94.109分钟
每日圈数: 15.30143
详细信息
固有亮度:
5
最大亮度:
2.5
卫星平台:
Starlink V1.0
覆盖范围:
全球
运营商:
太空探索技术公司
运营商所在国:
美国
制造商(研发单位):
太空探索技术公司
制造商所在国:
美国
使用方式:
暂无
卫星简介
Starlink 计划是 SpaceX 推出的全球卫星互联网项目,通过发射低轨道卫星,为全球尤其是偏远地区提供高速、低延迟的互联网服务。自 2019 年起,Starlink 已部署数千颗卫星,旨在缩小全球数字鸿沟,推动互联网普及。该项目还为军事、航空等行业提供通信支持,带来广泛经济效益。
2D轨道图
3D轨道图
轨道高度分析图
轨道倾角分析图
轨道综合分析图
查看轨道综合分析图